To NAV CANADA Home Page Login to a new session Search on AWWS site Disclaimer Vers la page française équivalente Tips FAQ What's new on the site To the Forecasts and Observations / NOTAM section To "File a Flight Plan" website Publications and other links Update of the User's profile FIC Telephone Numbers My Weather Data Folder Route Weather Data Regional Weather Data Local Weather Data To the Forecasts and Observations / NOTAM section
Request Generated 03/19/2019 at 23:03:29 UTC . Weather information available at that time is displayed.

METAR/TAF

MATAGAMI/QC    (show WxCam)

METAR CYNM 192300Z AUTO 22005KT 9SM FEW065 M00/M10 A3008 RMK SLP213=
METAR CYNM 192200Z AUTO 24009KT 200V260 9SM BKN060 00/M10 A3008 RMK SLP214=
METAR CYNM 192100Z AUTO 24010G15KT 200V270 9SM BKN055 01/M11 A3009 RMK SLP218=

CYNM - No TAF is issued for this station

Your time UTC time
Weather data provided by Environment Canada and NAV CANADA